Погода в Анантапуре

Индия     14°40′43″N   77°36′35″E
темп.,
°C
ветер,
м/с
пор.,
м/с
влажн.,
%
обл.,
%
осадки,
мм/ч
давл.,
гПа
погр.,
м
6 мая, чт
чт623:30+32вюв7114269 0.0 1007586
02:30+30вюв475010 0.0 1007445
05:30+29юв585625 0.0 1008313
08:30+32юв554641 0.0 1010928
11:30+36юв452832 0.0 10091989
14:30+39в562036 0.0 10053171
17:30+38в551935 0.0 10043457
20:30+36всв372381 0.0 1007196
7 мая, пт
пт723:30+32вюв8124081 0.0 1008691
02:30+30зюз3451100 0.0 1008340
05:30+30зюз33536 0.0 1009334
08:30+31вюв224883 0.0 1011860
11:30+35юв233489 0.0 10092244
14:30+37вюв1227100 0.3 10062929
17:30+37сз232781 0.8 1004727
20:30+35всв352844 0.0 1007142
8 мая, сб
сб823:30+32вюв583887 0.3 1008925
02:30+29зюз6857100 0.0 1008434
05:30+28юз5660100 0.0 1009250
08:30+31зсз445097 0.0 1010791
11:30+35юз223464 0.0 10092146
14:30+38ююз2426100 0.0 10053455
17:30+35зюз2332100 0.4 1004285
20:30+35сз223112 0.0 1006127
9 мая, вс
вс923:30+32в9114495 0.0 1008729
02:30+30вюв585397 0.0 1006352
05:30+29в5857100 0.0 1007331
08:30+32юв2345100 0.0 1009807
11:30+36зюз4233100 0.0 10081926
14:30+38ю122580 0.0 10043093
17:30+39сз122279 0.0 10022515
20:30+35ссз343297 0.1 1006759
10 мая, пн
пн1023:30+32зюз9949100 0.3 1007761
02:30+28з6857100 2.6 1006526
05:30+28з4558100 3.8 1008276
08:30+31з4446100 0.0 1009767
11:30+35зсз333597 0.0 10081583
14:30+38сз222863 0.0 10043085
17:30+38сз232798 0.0 10032580
20:30+36ююз2232100 0.6 10051020